Time,TemperatureF,DewpointF,PressureIn,WindDirection,WindDirectionDegrees,WindSpeedMPH,WindSpeedGustMPH,Humidity,HourlyPrecipIn,Conditions,Clouds,dailyrainin,SoftwareType,DateUTC
2013-07-24 00:14:00,60.0,55.0,29.88,North,9,0.0,2.0,83,0.00,,,0.00,weatherlink.com 1.10,2013-07-24 04:14:00,
2013-07-24 00:29:00,59.5,55.0,29.88,NNE,32,1.0,4.0,85,0.00,,,0.00,weatherlink.com 1.10,2013-07-24 04:29:00,
2013-07-24 00:44:00,59.1,54.0,29.88,East,94,0.0,2.0,83,0.00,,,0.00,weatherlink.com 1.10,2013-07-24 04:44:00,
2013-07-24 00:59:00,58.6,55.0,29.89,North,9,0.0,3.0,86,0.00,,,0.00,weatherlink.com 1.10,2013-07-24 04:59:00,
2013-07-24 01:14:00,58.0,54.0,29.89,NW,305,1.0,2.0,87,0.00,,,0.00,weatherlink.com 1.10,2013-07-24 05:14:00,
2013-07-24 01:29:00,57.6,54.0,29.89,NNE,17,3.0,4.0,88,0.00,,,0.00,weatherlink.com 1.10,2013-07-24 05:29:00,
2013-07-24 01:44:00,57.2,53.0,29.89,North,9,2.0,3.0,87,0.00,,,0.00,weatherlink.com 1.10,2013-07-24 05:44:00,
2013-07-24 01:59:00,57.2,54.0,29.89,NNW,330,0.0,2.0,88,0.00,,,0.00,weatherlink.com 1.10,2013-07-24 05:59:00,
2013-07-24 02:14:00,57.4,54.0,29.89,NW,311,1.0,2.0,88,0.00,,,0.00,weatherlink.com 1.10,2013-07-24 06:14:00,
2013-07-24 02:29:00,56.9,53.0,29.89,NW,311,0.0,1.0,87,0.00,,,0.00,weatherlink.com 1.10,2013-07-24 06:29:00,
2013-07-24 02:44:00,56.1,53.0,29.89,NW,311,1.0,1.0,89,0.00,,,0.00,weatherlink.com 1.10,2013-07-24 06:44:00,
2013-07-24 02:59:00,55.5,52.0,29.89,NNW,338,1.0,5.0,88,0.00,,,0.00,weatherlink.com 1.10,2013-07-24 06:59:00,
2013-07-24 03:14:00,56.3,53.0,29.89,NNW,328,0.0,2.0,87,0.00,,,0.00,weatherlink.com 1.10,2013-07-24 07:14:00,
2013-07-24 03:29:00,56.5,52.0,29.89,NNW,336,0.0,3.0,86,0.00,,,0.00,weatherlink.com 1.10,2013-07-24 07:29:00,
2013-07-24 04:14:00,55.0,52.0,29.89,NNW,336,1.0,1.0,90,0.00,,,0.00,weatherlink.com 1.10,2013-07-24 08:14:00,
2013-07-24 04:29:00,55.0,52.0,29.90,NNE,28,2.0,2.0,89,0.00,,,0.00,weatherlink.com 1.10,2013-07-24 08:29:00,
2013-07-24 04:44:00,55.0,52.0,29.91,NE,50,1.0,2.0,88,0.00,,,0.00,weatherlink.com 1.10,2013-07-24 08:44:00,
2013-07-24 04:59:00,55.0,52.0,29.91,NE,37,1.0,2.0,88,0.00,,,0.00,weatherlink.com 1.10,2013-07-24 08:59:00,
2013-07-24 05:14:00,54.7,51.0,29.91,NE,42,0.0,1.0,88,0.00,,,0.00,weatherlink.com 1.10,2013-07-24 09:14:00,
2013-07-24 05:30:00,54.4,51.0,29.91,NE,42,0.0,1.0,89,0.00,,,0.00,weatherlink.com 1.10,2013-07-24 09:30:00,
2013-07-24 05:45:00,54.5,50.0,29.92,ENE,75,0.0,4.0,86,0.00,,,0.00,weatherlink.com 1.10,2013-07-24 09:45:00,
2013-07-24 06:00:00,54.8,50.0,29.93,ENE,71,1.0,3.0,85,0.00,,,0.00,weatherlink.com 1.10,2013-07-24 10:00:00,
2013-07-24 06:15:00,55.0,50.0,29.93,ENE,75,3.0,4.0,82,0.00,,,0.00,weatherlink.com 1.10,2013-07-24 10:15:00,
2013-07-24 06:30:00,55.0,49.0,29.94,NNE,33,1.0,6.0,81,0.00,,,0.00,weatherlink.com 1.10,2013-07-24 10:30:00,
2013-07-24 06:45:00,55.1,49.0,29.95,NNE,27,0.0,3.0,81,0.00,,,0.00,weatherlink.com 1.10,2013-07-24 10:45:00,
2013-07-24 07:00:00,55.9,50.0,29.95,ENE,74,1.0,3.0,81,0.00,,,0.00,weatherlink.com 1.10,2013-07-24 11:00:00,
2013-07-24 07:15:00,57.5,51.0,29.96,ENE,64,0.0,3.0,78,0.00,,,0.00,weatherlink.com 1.10,2013-07-24 11:15:00,
2013-07-24 07:30:00,58.5,52.0,29.96,ENE,67,2.0,3.0,78,0.00,,,0.00,weatherlink.com 1.10,2013-07-24 11:30:00,
2013-07-24 07:45:00,58.6,51.0,29.96,ENE,60,3.0,3.0,76,0.00,,,0.00,weatherlink.com 1.10,2013-07-24 11:45:00,
2013-07-24 08:00:00,59.7,51.0,29.96,ENE,64,3.0,6.0,74,0.00,,,0.00,weatherlink.com 1.10,2013-07-24 12:00:00,
2013-07-24 08:15:00,60.8,52.0,29.98,NW,319,1.0,3.0,74,0.00,,,0.00,weatherlink.com 1.10,2013-07-24 12:15:00,
2013-07-24 08:30:00,61.0,52.0,29.98,NNE,32,1.0,5.0,72,0.00,,,0.00,weatherlink.com 1.10,2013-07-24 12:30:00,
2013-07-24 08:45:00,61.4,53.0,29.99,NE,46,2.0,6.0,73,0.00,,,0.00,weatherlink.com 1.10,2013-07-24 12:45:00,
2013-07-24 09:00:00,61.2,54.0,29.99,NE,51,3.0,9.0,76,0.00,,,0.00,weatherlink.com 1.10,2013-07-24 13:00:00,
2013-07-24 09:15:00,60.4,54.0,29.99,NNE,26,1.0,6.0,80,0.01,,,0.01,weatherlink.com 1.10,2013-07-24 13:15:00,
2013-07-24 09:30:00,61.3,53.0,29.99,ENE,59,3.0,5.0,75,0.01,,,0.01,weatherlink.com 1.10,2013-07-24 13:30:00,
2013-07-24 09:45:00,61.5,53.0,29.99,East,90,4.0,6.0,74,0.01,,,0.01,weatherlink.com 1.10,2013-07-24 13:45:00,
2013-07-24 10:00:00,62.5,54.0,29.99,East,80,2.0,6.0,73,0.01,,,0.01,weatherlink.com 1.10,2013-07-24 14:00:00,
2013-07-24 10:15:00,63.1,54.0,30.00,ESE,104,6.0,8.0,73,0.00,,,0.01,weatherlink.com 1.10,2013-07-24 14:15:00,
2013-07-24 10:30:00,63.1,53.0,30.00,NNW,336,2.0,11.0,70,0.00,,,0.01,weatherlink.com 1.10,2013-07-24 14:30:00,
2013-07-24 10:45:00,64.3,53.0,30.00,NE,46,2.0,9.0,68,0.00,,,0.01,weatherlink.com 1.10,2013-07-24 14:45:00,
2013-07-24 11:00:00,63.9,53.0,30.00,NNE,23,4.0,11.0,67,0.00,,,0.01,weatherlink.com 1.10,2013-07-24 15:00:00,
2013-07-24 11:15:00,65.0,52.0,30.00,ESE,110,8.0,11.0,64,0.00,,,0.01,weatherlink.com 1.10,2013-07-24 15:15:00,
2013-07-24 11:30:00,64.5,51.0,30.01,East,94,6.0,14.0,62,0.00,,,0.01,weatherlink.com 1.10,2013-07-24 15:30:00,
2013-07-24 11:45:00,65.1,52.0,30.01,NNE,12,2.0,9.0,63,0.00,,,0.01,weatherlink.com 1.10,2013-07-24 15:45:00,
2013-07-24 12:00:00,65.2,53.0,30.01,North,11,5.0,7.0,66,0.00,,,0.01,weatherlink.com 1.10,2013-07-24 16:00:00,
2013-07-24 12:15:00,65.6,52.0,30.01,NE,34,2.0,10.0,61,0.00,,,0.01,weatherlink.com 1.10,2013-07-24 16:15:00,
2013-07-24 12:30:00,66.0,52.0,30.01,NNE,14,2.0,9.0,60,0.00,,,0.01,weatherlink.com 1.10,2013-07-24 16:30:00,
2013-07-24 12:45:00,66.8,51.0,30.01,NE,40,3.0,8.0,58,0.00,,,0.01,weatherlink.com 1.10,2013-07-24 16:45:00,
2013-07-24 13:00:00,67.2,53.0,30.02,North,349,6.0,10.0,60,0.00,,,0.01,weatherlink.com 1.10,2013-07-24 17:00:00,
2013-07-24 13:15:00,67.4,53.0,30.02,ENE,59,4.0,7.0,61,0.00,,,0.01,weatherlink.com 1.10,2013-07-24 17:15:00,
2013-07-24 13:31:00,67.9,53.0,30.02,NE,45,3.0,8.0,59,0.00,,,0.01,weatherlink.com 1.10,2013-07-24 17:31:00,
2013-07-24 13:46:00,67.9,53.0,30.02,East,94,6.0,10.0,60,0.00,,,0.01,weatherlink.com 1.10,2013-07-24 17:46:00,
2013-07-24 14:01:00,68.2,51.0,30.02,North,355,2.0,9.0,55,0.00,,,0.01,weatherlink.com 1.10,2013-07-24 18:01:00,
2013-07-24 14:16:00,68.1,55.0,30.01,NNE,24,1.0,7.0,63,0.00,,,0.01,weatherlink.com 1.10,2013-07-24 18:16:00,
2013-07-24 14:31:00,69.0,52.0,30.01,East,95,6.0,10.0,56,0.00,,,0.01,weatherlink.com 1.10,2013-07-24 18:31:00,
2013-07-24 14:46:00,69.2,54.0,30.01,NE,46,6.0,10.0,59,0.00,,,0.01,weatherlink.com 1.10,2013-07-24 18:46:00,
2013-07-24 15:01:00,69.9,52.0,30.01,ESE,102,6.0,8.0,54,0.00,,,0.01,weatherlink.com 1.10,2013-07-24 19:01:00,
2013-07-24 15:16:00,69.8,54.0,30.01,ENE,61,4.0,6.0,58,0.00,,,0.01,weatherlink.com 1.10,2013-07-24 19:16:00,
2013-07-24 15:31:00,69.6,53.0,30.01,WNW,299,4.0,11.0,55,0.00,,,0.01,weatherlink.com 1.10,2013-07-24 19:31:00,
2013-07-24 15:46:00,69.7,53.0,30.00,ENE,64,8.0,10.0,55,0.00,,,0.01,weatherlink.com 1.10,2013-07-24 19:46:00,
2013-07-24 16:01:00,70.1,54.0,30.00,East,80,7.0,8.0,58,0.00,,,0.01,weatherlink.com 1.10,2013-07-24 20:01:00,
2013-07-24 16:16:00,70.4,52.0,30.00,ESE,107,3.0,7.0,53,0.00,,,0.01,weatherlink.com 1.10,2013-07-24 20:16:00,
2013-07-24 16:31:00,70.5,53.0,30.00,East,92,4.0,11.0,55,0.00,,,0.01,weatherlink.com 1.10,2013-07-24 20:31:00,
2013-07-24 16:46:00,71.1,52.0,30.00,ESE,111,6.0,9.0,51,0.00,,,0.01,weatherlink.com 1.10,2013-07-24 20:46:00,
2013-07-24 17:01:00,70.7,54.0,30.00,NNE,23,3.0,9.0,55,0.00,,,0.01,weatherlink.com 1.10,2013-07-24 21:01:00,
2013-07-24 17:16:00,71.1,52.0,30.00,ENE,65,4.0,9.0,52,0.00,,,0.01,weatherlink.com 1.10,2013-07-24 21:16:00,
2013-07-24 17:46:00,71.8,55.0,30.00,ESE,117,4.0,8.0,55,0.00,,,0.01,weatherlink.com 1.10,2013-07-24 21:46:00,
2013-07-24 18:01:00,71.5,53.0,30.00,ENE,77,5.0,6.0,52,0.00,,,0.01,weatherlink.com 1.10,2013-07-24 22:01:00,
2013-07-24 18:16:00,71.5,53.0,29.99,ENE,74,1.0,6.0,52,0.00,,,0.01,weatherlink.com 1.10,2013-07-24 22:16:00,
2013-07-24 18:31:00,71.7,53.0,29.99,ESE,121,1.0,6.0,52,0.00,,,0.01,weatherlink.com 1.10,2013-07-24 22:31:00,
2013-07-24 18:46:00,71.9,53.0,30.00,NE,48,3.0,5.0,51,0.00,,,0.01,weatherlink.com 1.10,2013-07-24 22:46:00,
2013-07-24 19:01:00,71.9,56.0,30.00,NNE,30,0.0,3.0,57,0.00,,,0.01,weatherlink.com 1.10,2013-07-24 23:01:00,
2013-07-24 19:16:00,71.1,53.0,30.00,North,360,2.0,5.0,53,0.00,,,0.01,weatherlink.com 1.10,2013-07-24 23:16:00,
2013-07-24 19:31:00,69.7,53.0,30.00,ENE,76,1.0,5.0,55,0.00,,,0.01,weatherlink.com 1.10,2013-07-24 23:31:00,
2013-07-24 19:46:00,69.5,54.0,30.01,East,80,2.0,5.0,59,0.00,,,0.01,weatherlink.com 1.10,2013-07-24 23:46:00,
2013-07-24 20:01:00,69.0,55.0,30.02,SE,126,2.0,6.0,62,0.00,,,0.01,weatherlink.com 1.10,2013-07-25 00:01:00,
2013-07-24 20:16:00,68.1,56.0,30.02,NE,52,3.0,6.0,65,0.00,,,0.01,weatherlink.com 1.10,2013-07-25 00:16:00,
2013-07-24 20:31:00,66.9,56.0,30.02,SE,128,1.0,6.0,68,0.00,,,0.01,weatherlink.com 1.10,2013-07-25 00:31:00,
2013-07-24 21:01:00,65.0,55.0,30.03,ESE,110,1.0,2.0,71,0.00,,,0.01,weatherlink.com 1.10,2013-07-25 01:01:00,
2013-07-24 21:31:00,63.7,55.0,30.03,ESE,116,1.0,2.0,73,0.00,,,0.01,weatherlink.com 1.10,2013-07-25 01:31:00,
2013-07-24 21:46:00,63.0,55.0,30.04,East,96,1.0,3.0,74,0.00,,,0.01,weatherlink.com 1.10,2013-07-25 01:46:00,
2013-07-24 22:01:00,62.5,55.0,30.04,East,86,0.0,2.0,75,0.00,,,0.01,weatherlink.com 1.10,2013-07-25 02:01:00,
2013-07-24 22:16:00,61.7,54.0,30.04,East,91,1.0,3.0,77,0.00,,,0.01,weatherlink.com 1.10,2013-07-25 02:16:00,
2013-07-24 22:31:00,61.1,55.0,30.04,ENE,69,2.0,3.0,80,0.00,,,0.01,weatherlink.com 1.10,2013-07-25 02:31:00,
2013-07-24 22:46:00,60.6,54.0,30.04,NE,55,0.0,1.0,80,0.00,,,0.01,weatherlink.com 1.10,2013-07-25 02:46:00,
2013-07-24 23:16:00,59.5,53.0,30.04,NE,55,1.0,1.0,80,0.00,,,0.01,weatherlink.com 1.10,2013-07-25 03:16:00,
2013-07-24 23:31:00,59.1,53.0,30.04,NE,55,0.0,1.0,81,0.00,,,0.01,weatherlink.com 1.10,2013-07-25 03:31:00,